Weather History for Hurlburt Field, FL

Change the Weather History Date:

Tuesday, November 12, 2013

  Actual Average Record
Temperature  
Mean Temperature 58 °F -  
Max Temperature 73 °F 69 °F 78 °F (1999)
Min Temperature 42 °F 50 °F 32 °F (2011)
Degree Days  
Heating Degree Days 6    
Growing Degree Days 8 (Base 50)    
Moisture  
Dew Point 41 °F    
Average Humidity 54    
Maximum Humidity 85    
Minimum Humidity 33    
Precipitation  
Precipitation 0.00 in - - ()
Sea Level Pressure  
Sea Level Pressure 30.21 in    
Wind  
Wind Speed 10 mph (North)    
Max Wind Speed 24 mph    
Max Gust Speed 33 mph    
Visibility 10 miles    
Events      
Averages and records for this station are not official NWS values.
T = Trace of Precipitation, MM = Missing Value Source: NWS Daily Summary

Daily Weather History Graph

Daily Weather History Graph

Search for Another Location

Airport:

Trip Planner

Search our weather history database for the weather conditions in past years. The results will help you decide how hot, cold, wet, or windy it might be!

Date:

Astronomy

Nov. 12, 2013 Rise Set
Actual Time 6:10 AM CST 4:51 PM CST
Civil Twilight 5:44 AM CST 5:16 PM CST
Nautical Twilight 5:16 AM CST 5:45 PM CST
Astronomical Twilight 4:47 AM CST 6:13 PM CST
Moon 1:47 PM CST (11/12) 1:19 AM CST (11/12)
Length of Visible Light 11h 31m
Length of Day
10h 40m
Waxing Gibbous, 76% of the Moon is Illuminated
Nov 12
Waxing Gibbous
Nov 17
Full
Nov 25
Last Quarter
Dec 2
New
Dec 9
First Quarter

Hourly Weather History & Observations

Time (CST) Temp. Windchill Dew Point Humidity Pressure Visibility Wind Dir Wind Speed Gust Speed Precip Events Conditions
12:58 AM 49.1 °F - 44.8 °F 85% 30.15 in 10.0 mi North 5.8 mph - N/A   Clear
1:58 AM 48.7 °F - 44.1 °F 84% 30.15 in 10.0 mi North 5.8 mph - N/A   Clear
2:58 AM 48.6 °F - 44.2 °F 85% 30.15 in 10.0 mi North 8.1 mph - N/A   Clear
3:58 AM 48.7 °F - 43.5 °F 82% 30.15 in 10.0 mi North 6.9 mph - N/A   Clear
4:58 AM 49.6 °F - 42.1 °F 75% 30.16 in 10.0 mi North 9.2 mph - N/A   Clear
5:58 AM 49.5 °F - 42.6 °F 77% 30.17 in 10.0 mi North 6.9 mph - N/A   Clear
6:58 AM 51.4 °F - 44.4 °F 77% 30.19 in 10.0 mi North 9.2 mph - N/A   Clear
7:58 AM 55.4 °F - 45.0 °F 68% 30.21 in 10.0 mi North 8.1 mph - N/A   Clear
8:58 AM 61.7 °F - 44.4 °F 53% 30.20 in 10.0 mi North 8.1 mph - N/A   Clear
9:44 AM 66.2 °F - 44.6 °F 46% 30.20 in 10.0 mi North 5.8 mph - N/A   Light Drizzle
9:45 AM 66.2 °F - 44.6 °F 46% 30.20 in 10.0 mi North 5.8 mph - N/A   Clear
9:58 AM 67.8 °F - 44.1 °F 42% 30.20 in 10.0 mi NNE 8.1 mph - 0.00 in   Clear
10:12 AM 68.0 °F - 44.6 °F 43% 30.19 in 10.0 mi NNE 6.9 mph - N/A   Light Drizzle
10:21 AM 69.8 °F - 42.8 °F 38% 30.18 in 10.0 mi North 9.2 mph - N/A   Clear
10:58 AM 71.4 °F - 41.0 °F 33% 30.18 in 10.0 mi North 13.8 mph 19.6 mph 0.00 in   Clear
11:58 AM 72.5 °F - 42.3 °F 34% 30.16 in 10.0 mi North 17.3 mph - N/A   Clear
12:58 PM 73.8 °F - 44.4 °F 35% 30.14 in 10.0 mi North 17.3 mph 21.9 mph N/A   Clear
1:58 PM 73.4 °F - 45.5 °F 37% 30.14 in 10.0 mi NNE 16.1 mph 21.9 mph N/A   Clear
2:58 PM 71.6 °F - 45.0 °F 38% 30.15 in 10.0 mi North 15.0 mph - N/A   Clear
3:58 PM 70.2 °F - 44.6 °F 40% 30.16 in 10.0 mi North 13.8 mph - N/A   Clear
4:58 PM 65.8 °F - 45.0 °F 47% 30.20 in 10.0 mi North 16.1 mph 24.2 mph N/A   Clear
5:58 PM 61.7 °F - 44.4 °F 53% 30.24 in 10.0 mi North 17.3 mph 31.1 mph N/A   Clear
6:58 PM 57.0 °F - 42.6 °F 59% 30.27 in 10.0 mi North 19.6 mph 28.8 mph N/A   Clear
7:58 PM 52.7 °F - 39.4 °F 61% 30.32 in 10.0 mi North 18.4 mph 26.5 mph N/A   Clear
8:58 PM 49.6 °F - 33.8 °F 54% 30.34 in 10.0 mi North 23.0 mph 29.9 mph N/A   Clear
9:58 PM 46.4 °F 38.1 °F 25.0 °F 43% 30.36 in 10.0 mi North 24.2 mph 33.4 mph N/A   Clear
10:58 PM 44.6 °F 35.9 °F 22.1 °F 41% 30.37 in 10.0 mi North 23.0 mph 29.9 mph N/A   Clear
11:58 PM 42.4 °F 33.5 °F 22.6 °F 46% 30.36 in 10.0 mi North 20.7 mph 25.3 mph N/A   Clear